Terminal Aerodrome Forecast
Issued by NWS Austin/San Antonio, TX

Home | Current Version | Previous Version | Text Only | Print | Product List | Glossary On
Versions: 1 2 3 4 5 6 7 8 9 10 11 12
000
FTUS44 KEWX 310529
TAFDRT
TAF
KDRT 310529Z 3106/0106 10008KT P6SM SCT020 SCT250
      TEMPO 3112/3115 BKN020
     FM311600 14010KT P6SM FEW070 SCT250=

USA.gov is the U.S. government's official web portal to all federal, state and local government web resources and services.